Time,TemperatureF,DewpointF,PressureIn,WindDirection,WindDirectionDegrees,WindSpeedMPH,WindSpeedGustMPH,Humidity,HourlyPrecipIn,Conditions,Clouds,dailyrainin,SoftwareType,DateUTC
2013-03-15 00:10:00,25.4,10.0,29.80,NNW,338,15.0,27.0,53,0.00,,,0.00,weatherlink.com 1.10,2013-03-15 04:10:00,
2013-03-15 00:25:00,25.3,11.0,29.81,NW,319,18.0,31.0,54,0.00,,,0.00,weatherlink.com 1.10,2013-03-15 04:25:00,
2013-03-15 00:40:00,25.1,11.0,29.81,WNW,303,16.0,24.0,55,0.00,,,0.00,weatherlink.com 1.10,2013-03-15 04:40:00,
2013-03-15 00:55:00,24.9,10.0,29.81,NW,311,19.0,30.0,54,0.00,,,0.00,weatherlink.com 1.10,2013-03-15 04:55:00,
2013-03-15 01:10:00,24.8,10.0,29.82,WNW,297,11.0,32.0,54,0.00,,,0.00,weatherlink.com 1.10,2013-03-15 05:10:00,
2013-03-15 01:25:00,24.6,10.0,29.82,NW,307,16.0,29.0,55,0.00,,,0.00,weatherlink.com 1.10,2013-03-15 05:25:00,
2013-03-15 01:40:00,24.7,11.0,29.82,NW,326,18.0,25.0,55,0.00,,,0.00,weatherlink.com 1.10,2013-03-15 05:40:00,
2013-03-15 01:55:00,24.8,11.0,29.83,West,277,13.0,32.0,57,0.00,,,0.00,weatherlink.com 1.10,2013-03-15 05:55:00,
2013-03-15 02:10:00,24.6,11.0,29.82,NNW,344,19.0,31.0,56,0.00,,,0.00,weatherlink.com 1.10,2013-03-15 06:10:00,
2013-03-15 02:25:00,24.4,10.0,29.83,NW,319,22.0,33.0,55,0.00,,,0.00,weatherlink.com 1.10,2013-03-15 06:25:00,
2013-03-15 02:40:00,24.2,11.0,29.82,WNW,302,31.0,33.0,57,0.00,,,0.00,weatherlink.com 1.10,2013-03-15 06:40:00,
2013-03-15 02:55:00,24.2,11.0,29.82,North,352,19.0,25.0,58,0.00,,,0.00,weatherlink.com 1.10,2013-03-15 06:55:00,
2013-03-15 03:11:00,24.2,11.0,29.82,NNW,332,10.0,28.0,58,0.00,,,0.00,weatherlink.com 1.10,2013-03-15 07:11:00,
2013-03-15 03:25:00,24.2,12.0,29.82,NW,323,9.0,29.0,59,0.00,,,0.00,weatherlink.com 1.10,2013-03-15 07:25:00,
2013-03-15 03:41:00,24.1,11.0,29.82,NNW,328,24.0,30.0,58,0.00,,,0.00,weatherlink.com 1.10,2013-03-15 07:41:00,
2013-03-15 03:56:00,24.1,12.0,29.82,NW,318,16.0,29.0,59,0.00,,,0.00,weatherlink.com 1.10,2013-03-15 07:56:00,
2013-03-15 04:11:00,24.1,12.0,29.82,WNW,302,18.0,26.0,59,0.00,,,0.00,weatherlink.com 1.10,2013-03-15 08:11:00,
2013-03-15 04:26:00,24.0,11.0,29.82,NW,304,18.0,31.0,58,0.00,,,0.00,weatherlink.com 1.10,2013-03-15 08:26:00,
2013-03-15 04:41:00,24.0,11.0,29.82,WNW,298,12.0,27.0,59,0.00,,,0.00,weatherlink.com 1.10,2013-03-15 08:41:00,
2013-03-15 04:56:00,24.0,13.0,29.82,NW,314,17.0,33.0,62,0.00,,,0.00,weatherlink.com 1.10,2013-03-15 08:56:00,
2013-03-15 05:11:00,23.8,11.0,29.83,NNW,348,21.0,32.0,59,0.00,,,0.00,weatherlink.com 1.10,2013-03-15 09:11:00,
2013-03-15 05:26:00,23.9,12.0,29.83,West,262,17.0,27.0,60,0.00,,,0.00,weatherlink.com 1.10,2013-03-15 09:26:00,
2013-03-15 06:26:00,23.5,11.0,29.85,NNW,334,15.0,24.0,59,0.00,,,0.00,weatherlink.com 1.10,2013-03-15 10:26:00,
2013-03-15 06:41:00,23.5,11.0,29.85,West,263,10.0,22.0,59,0.00,,,0.00,weatherlink.com 1.10,2013-03-15 10:41:00,
2013-03-15 06:56:00,23.3,11.0,29.86,WSW,252,12.0,29.0,60,0.00,,,0.00,weatherlink.com 1.10,2013-03-15 10:56:00,
2013-03-15 07:11:00,23.0,10.0,29.86,NW,310,13.0,30.0,58,0.00,,,0.00,weatherlink.com 1.10,2013-03-15 11:11:00,
2013-03-15 07:26:00,22.9,10.0,29.86,WNW,298,14.0,28.0,58,0.00,,,0.00,weatherlink.com 1.10,2013-03-15 11:26:00,
2013-03-15 07:41:00,22.9,10.0,29.87,NW,316,14.0,30.0,58,0.00,,,0.00,weatherlink.com 1.10,2013-03-15 11:41:00,
2013-03-15 07:56:00,22.7,9.0,29.87,NW,319,19.0,24.0,56,0.00,,,0.00,weatherlink.com 1.10,2013-03-15 11:56:00,
2013-03-15 08:11:00,22.9,10.0,29.87,NW,317,12.0,24.0,59,0.00,,,0.00,weatherlink.com 1.10,2013-03-15 12:11:00,
2013-03-15 08:26:00,23.0,10.0,29.87,NW,311,21.0,24.0,59,0.00,,,0.00,weatherlink.com 1.10,2013-03-15 12:26:00,
2013-03-15 08:41:00,23.1,11.0,29.87,NW,310,15.0,25.0,60,0.00,,,0.00,weatherlink.com 1.10,2013-03-15 12:41:00,
2013-03-15 08:56:00,23.6,10.0,29.87,WNW,298,8.0,22.0,57,0.00,,,0.00,weatherlink.com 1.10,2013-03-15 12:56:00,
2013-03-15 09:11:00,23.4,10.0,29.87,West,259,14.0,24.0,57,0.00,,,0.00,weatherlink.com 1.10,2013-03-15 13:11:00,
2013-03-15 09:26:00,23.7,11.0,29.87,NW,317,8.0,22.0,58,0.00,,,0.00,weatherlink.com 1.10,2013-03-15 13:26:00,
2013-03-15 09:41:00,24.5,11.0,29.87,NW,305,22.0,26.0,57,0.00,,,0.00,weatherlink.com 1.10,2013-03-15 13:41:00,
2013-03-15 09:56:00,24.8,11.0,29.87,NW,304,16.0,23.0,57,0.00,,,0.00,weatherlink.com 1.10,2013-03-15 13:56:00,
2013-03-15 10:11:00,24.8,13.0,29.87,NW,323,14.0,25.0,60,0.00,,,0.00,weatherlink.com 1.10,2013-03-15 14:11:00,
2013-03-15 10:26:00,25.2,12.0,29.86,NW,325,11.0,30.0,58,0.00,,,0.00,weatherlink.com 1.10,2013-03-15 14:26:00,
2013-03-15 10:41:00,25.6,11.0,29.86,NNW,340,7.0,25.0,54,0.00,,,0.00,weatherlink.com 1.10,2013-03-15 14:41:00,
2013-03-15 10:56:00,27.1,15.0,29.86,NW,322,6.0,21.0,60,0.00,,,0.00,weatherlink.com 1.10,2013-03-15 14:56:00,
2013-03-15 11:26:00,27.4,12.0,29.85,NNW,334,17.0,25.0,53,0.00,,,0.00,weatherlink.com 1.10,2013-03-15 15:26:00,
2013-03-15 11:41:00,28.2,13.0,29.84,WNW,288,15.0,26.0,53,0.00,,,0.00,weatherlink.com 1.10,2013-03-15 15:41:00,
2013-03-15 11:56:00,29.0,13.0,29.84,WNW,287,7.0,22.0,51,0.00,,,0.00,weatherlink.com 1.10,2013-03-15 15:56:00,
2013-03-15 12:11:00,29.4,12.0,29.83,NW,307,11.0,24.0,49,0.00,,,0.00,weatherlink.com 1.10,2013-03-15 16:11:00,
2013-03-15 12:26:00,30.6,13.0,29.83,WNW,290,12.0,23.0,48,0.00,,,0.00,weatherlink.com 1.10,2013-03-15 16:26:00,
2013-03-15 12:41:00,31.2,14.0,29.82,WNW,285,10.0,23.0,50,0.00,,,0.00,weatherlink.com 1.10,2013-03-15 16:41:00,
2013-03-15 12:56:00,31.6,15.0,29.81,West,269,8.0,25.0,50,0.00,,,0.00,weatherlink.com 1.10,2013-03-15 16:56:00,
2013-03-15 13:12:00,32.6,14.0,29.80,WNW,295,10.0,24.0,46,0.00,,,0.00,weatherlink.com 1.10,2013-03-15 17:12:00,
2013-03-15 13:27:00,33.8,13.0,29.79,WNW,290,7.0,16.0,43,0.00,,,0.00,weatherlink.com 1.10,2013-03-15 17:27:00,
2013-03-15 13:41:00,34.5,11.0,29.78,WSW,257,11.0,23.0,38,0.00,,,0.00,weatherlink.com 1.10,2013-03-15 17:41:00,
2013-03-15 13:57:00,32.9,17.0,29.77,WSW,257,21.0,25.0,53,0.00,,,0.00,weatherlink.com 1.10,2013-03-15 17:57:00,
2013-03-15 14:12:00,32.9,18.0,29.76,West,281,19.0,25.0,55,0.00,,,0.00,weatherlink.com 1.10,2013-03-15 18:12:00,
2013-03-15 14:27:00,33.0,20.0,29.76,West,259,22.0,26.0,60,0.00,,,0.00,weatherlink.com 1.10,2013-03-15 18:27:00,
2013-03-15 14:42:00,32.6,19.0,29.75,West,277,24.0,30.0,58,0.00,,,0.00,weatherlink.com 1.10,2013-03-15 18:42:00,
2013-03-15 14:57:00,33.1,21.0,29.75,West,271,21.0,29.0,61,0.00,,,0.00,weatherlink.com 1.10,2013-03-15 18:57:00,
2013-03-15 15:12:00,33.6,20.0,29.74,WSW,246,17.0,24.0,58,0.00,,,0.00,weatherlink.com 1.10,2013-03-15 19:12:00,
2013-03-15 15:42:00,34.1,18.0,29.73,West,270,18.0,26.0,52,0.00,,,0.00,weatherlink.com 1.10,2013-03-15 19:42:00,
2013-03-15 15:57:00,34.4,18.0,29.72,WSW,241,21.0,25.0,52,0.00,,,0.00,weatherlink.com 1.10,2013-03-15 19:57:00,
2013-03-15 16:27:00,34.5,21.0,29.71,West,262,20.0,26.0,58,0.00,,,0.00,weatherlink.com 1.10,2013-03-15 20:27:00,
2013-03-15 16:42:00,34.9,22.0,29.70,West,259,24.0,29.0,60,0.00,,,0.00,weatherlink.com 1.10,2013-03-15 20:42:00,
2013-03-15 16:57:00,35.6,24.0,29.70,West,263,24.0,28.0,63,0.00,,,0.00,weatherlink.com 1.10,2013-03-15 20:57:00,
2013-03-15 17:27:00,36.5,26.0,29.69,West,259,29.0,39.0,66,0.00,,,0.00,weatherlink.com 1.10,2013-03-15 21:27:00,
2013-03-15 17:42:00,36.5,26.0,29.68,West,273,28.0,35.0,67,0.00,,,0.00,weatherlink.com 1.10,2013-03-15 21:42:00,
2013-03-15 17:57:00,37.0,28.0,29.68,West,274,33.0,39.0,69,0.00,,,0.00,weatherlink.com 1.10,2013-03-15 21:57:00,
2013-03-15 18:12:00,37.1,27.0,29.68,West,270,29.0,38.0,68,0.00,,,0.00,weatherlink.com 1.10,2013-03-15 22:12:00,
2013-03-15 18:27:00,37.3,28.0,29.68,WNW,287,28.0,37.0,70,0.00,,,0.00,weatherlink.com 1.10,2013-03-15 22:27:00,
2013-03-15 18:42:00,37.2,29.0,29.68,West,264,27.0,34.0,71,0.00,,,0.00,weatherlink.com 1.10,2013-03-15 22:42:00,
2013-03-15 18:57:00,37.3,30.0,29.68,WSW,257,23.0,38.0,74,0.00,,,0.00,weatherlink.com 1.10,2013-03-15 22:57:00,
2013-03-15 19:12:00,37.5,30.0,29.68,West,276,25.0,41.0,74,0.00,,,0.00,weatherlink.com 1.10,2013-03-15 23:12:00,
2013-03-15 19:27:00,37.6,30.0,29.68,West,269,31.0,42.0,75,0.00,,,0.00,weatherlink.com 1.10,2013-03-15 23:27:00,
2013-03-15 19:57:00,37.4,30.0,29.69,West,278,15.0,36.0,74,0.00,,,0.00,weatherlink.com 1.10,2013-03-15 23:57:00,
2013-03-15 20:12:00,37.3,30.0,29.70,West,277,14.0,27.0,75,0.00,,,0.00,weatherlink.com 1.10,2013-03-16 00:12:00,
2013-03-15 20:27:00,37.2,30.0,29.70,NW,323,15.0,24.0,74,0.00,,,0.00,weatherlink.com 1.10,2013-03-16 00:27:00,
2013-03-15 20:42:00,37.2,29.0,29.69,West,281,16.0,26.0,72,0.00,,,0.00,weatherlink.com 1.10,2013-03-16 00:42:00,
2013-03-15 20:57:00,37.3,29.0,29.69,West,274,12.0,20.0,72,0.00,,,0.00,weatherlink.com 1.10,2013-03-16 00:57:00,
2013-03-15 21:12:00,37.8,28.0,29.69,WNW,289,21.0,24.0,69,0.00,,,0.00,weatherlink.com 1.10,2013-03-16 01:12:00,
2013-03-15 21:27:00,38.1,28.0,29.70,WNW,284,22.0,24.0,68,0.00,,,0.00,weatherlink.com 1.10,2013-03-16 01:27:00,
2013-03-15 21:44:00,38.1,28.0,29.70,WNW,303,12.0,22.0,68,0.00,,,0.00,weatherlink.com 1.10,2013-03-16 01:44:00,
2013-03-15 21:58:00,37.9,28.0,29.70,WNW,282,15.0,23.0,68,0.00,,,0.00,weatherlink.com 1.10,2013-03-16 01:58:00,
2013-03-15 22:13:00,37.7,28.0,29.69,WNW,282,12.0,21.0,67,0.00,,,0.00,weatherlink.com 1.10,2013-03-16 02:13:00,
2013-03-15 22:28:00,37.2,28.0,29.70,WNW,297,9.0,15.0,69,0.00,,,0.00,weatherlink.com 1.10,2013-03-16 02:28:00,
2013-03-15 22:43:00,37.0,28.0,29.69,WNW,287,13.0,17.0,69,0.00,,,0.00,weatherlink.com 1.10,2013-03-16 02:43:00,
2013-03-15 22:58:00,36.8,28.0,29.69,WNW,285,10.0,19.0,71,0.00,,,0.00,weatherlink.com 1.10,2013-03-16 02:58:00,
2013-03-15 23:13:00,36.6,28.0,29.69,West,278,7.0,17.0,71,0.00,,,0.00,weatherlink.com 1.10,2013-03-16 03:13:00,
2013-03-15 23:28:00,36.6,28.0,29.69,West,280,13.0,17.0,71,0.00,,,0.00,weatherlink.com 1.10,2013-03-16 03:28:00,
2013-03-15 23:43:00,36.2,28.0,29.69,West,281,8.0,15.0,72,0.00,,,0.00,weatherlink.com 1.10,2013-03-16 03:43:00,
2013-03-15 23:58:00,36.2,28.0,29.68,WNW,293,11.0,20.0,71,0.00,,,0.00,weatherlink.com 1.10,2013-03-16 03:58:00,